User: anonymous   Login
Location: Newark
(48.1500°N, 2.9667°W)
Time: 08:28:59
(UTC+00:00)
Language:

Tiros 1 - Orbit

View from above orbital plane
View from above orbital plane
View from above satellite
View from above satellite

Ground track
Ground track

The orbit data is extracted from the following two-line orbital elements,

1    29U 60002B   20021.18124083 -.00000138 +00000-0 +10465-4 0  9994
2    29 048.3799 288.3530 0024520 317.5453 042.3562 14.74337803196663
Epoch (UTC): 21 January 2020 04:20:59
Eccentricity: 0.0024520
inclination: 48.3799°
perigee height: 630 km
apogee height: 664 km
right ascension of ascending node: 288.3530°
argument of perigee: 317.5453°
revolutions per day: 14.74337803
mean anomaly at epoch: 42.3562°
orbit number at epoch: 19666

The dashed part of the orbit path shows where the satellite is in the earth's shadow,  

DLR